Погода в Гюмюшхаджикёе

Турция     40°52′58″N   35°12′56″E
темп.,
°C
ветер,
м/с
пор.,
м/с
влажн.,
%
обл.,
%
осадки,
мм/ч
давл.,
гПа
погр.,
м
16 мая, вс
вс1600:00+12св23480 0.0 101026
03:00+11всв114949 0.0 100911
06:00+12вюв115277 0.0 100610
09:00+18ююв1146100 0.0 1005245
12:00+21ююв1346100 0.1 1004747
15:00+22юз2446100 0.2 10021582
18:00+19з25573 0.6 1003668
21:00+12сз348210 2.1 1007156
17 мая, пн
пн1700:00+10ю227868 0.1 100713
03:00+10зюз227689 0.1 100717
06:00+10в118199 0.1 100811
09:00+13сз0172100 0.6 1009565
12:00+16ююз136396 3.4 10091055
15:00+16ссз245744 7.4 10081358
18:00+13ссв227983 3.6 1010319
21:00+10вюв119349 5.5 101258
18 мая, вт
вт1800:00+9ююв11895 0.0 101211
03:00+9ююз22845 0.0 101115
06:00+9ююз22845 0.0 101224
09:00+15ююз3660100 0.0 1012587
12:00+19юз574733 0.0 10111671
15:00+20юз454462 0.0 10102023
18:00+20сз035193 0.0 1009907
21:00+11св459624 1.1 1013157
19 мая, ср
ср1900:00+9с239882 1.3 1014125
03:00+9с129770 1.4 101583
06:00+10ююз019298 0.0 1016112
09:00+13ююз028084 0.0 1017636
12:00+17зюз135530 0.0 10161390
15:00+20ссз134694 0.1 10151775
18:00+17всв33665 0.0 1015665
21:00+11всв229736 0.0 101732
20 мая, чт
чт2000:00+11вюв11860 0.0 101612
03:00+11юв11800 0.0 101510
06:00+12ююв12720 0.0 101411
09:00+19ююв22560 0.0 1013290
12:00+23ююв24450 0.0 1011715
15:00+25ю35400 0.0 10101630
18:00+24в22530 0.0 1009269
21:00+19вюв11571 0.0 101011